Etusivu
METAR-TAF:

METAR-TAF

Lentoasemat :

Newton Municipal Airport

Newton, Iowa, Yhdysvallat

Leveyspiiri: 41-41N, Pituuspiiri: 093-01W, korkeus merenpinnasta: 290 m

Tämänhetkinen sää

Tämä raportti tehtiin 24 minuuttia sitten, kello 16.55 UTC
Tuuli 8 kn kaakosta
Lämpötila 6°C
Kosteus 65%
Ilmanpaine 1026 hPa
Näkyvyys: 16.1 km
selkeää

METAR: KTNU 301655Z AUTO 14008KT 10SM CLR 06/M00 A3029 RMK A01

Aika: 12:19 (17:19 UTC)


TAF: puuttuu

Säähavainnot ja -ennusteet yli 4000 lentoasemalta (METAR- ja TAF-raportit).

Käytössä olevat sääasemat on merkitty karttaan keltaisilla ja punaisilla pisteillä.

Aseta hiiri pisteen päälle nähdäksesi sääaseman nimen.

Klikkaa sitten nähdäksesi säähavainnot ja -ennusteet.

Kartan vaihtaminen: klikkaa mustalla rastilla varustettuja vihreitä pisteitä, niin voit zoomata sisään; viivalla varustettua vihreää pistettä, niin voit zoomata ulos tai vihreitä nuolia, niin pääset viereisille kartoille.


METAR-TAF: